Погода в Юньяне

Китай     33°28′24″N   112°27′59″E
темп.,
°C
ветер,
м/с
пор.,
м/с
влажн.,
%
обл.,
%
осадки,
мм/ч
давл.,
гПа
погр.,
м
16 мая, вс
вс1623:00+18с1193100 3.1 100624
02:00+17ссв2393100 3.7 1007166
05:00+15св3492100 0.3 1009214
08:00+14св2388100 0.3 1012202
11:00+14св4585100 0.3 1014398
14:00+14св4578100 0.3 1014508
17:00+12всв2383100 0.6 1015310
20:00+12юз0186100 0.9 1016101
17 мая, пн
пн1723:00+12ююз129297 0.0 101795
02:00+11ююз01947 0.0 101611
05:00+11зсз119142 0.0 101611
08:00+14зсз127895 0.0 1016184
11:00+19ююв1157100 0.0 1016391
14:00+20ююз2156100 0.0 1015667
17:00+22ююз124452 0.0 1013841
20:00+16з116644 0.0 101411
18 мая, вт
вт1823:00+14зсз127091 0.0 101413
02:00+15зсз1164100 0.0 101311
05:00+14з1162100 0.0 101211
08:00+17з1159100 0.0 1013115
11:00+20ю215860 0.0 1013413
14:00+25ююв32390 0.0 10101201
17:00+25ююв323878 0.0 10081175
20:00+19ююв2262100 0.0 100917
19 мая, ср
ср1923:00+16ю1281100 0.0 101122
02:00+15ю1189100 0.0 100925
05:00+15ю1192100 0.0 100915
08:00+16ю1286100 0.0 1010176
11:00+21ю3266100 0.0 1009670
14:00+23ююв325859 0.0 1006764
17:00+23ююв3359100 0.0 1005749
20:00+18ююв2278100 0.0 100633
20 мая, чт
чт2023:00+16ю1192100 0.0 100823
02:00+16юв0192100 0.0 100512
05:00+16ю2292100 0.0 100638
08:00+18ю2179100 0.0 1007201
11:00+24ююв216015 0.0 1006575
14:00+27ююв32490 0.0 1004972
17:00+27ю334952 0.0 10041054
20:00+22ююз226814 0.1 100515